Track STARLINK-1594 now! 10-day predictions STARLINK-1594 is classified as:
1 46140U 20057Z 21021.54286064 -.00000156 00000-0 84224-5 0 9998 2 46140 53.0589 45.4560 0001416 74.1387 285.9758 15.06410640 25562